STARLINK-1654, 46326

Orbit data source: Space-Track

STARLINK-1654, 46326 is a payload satellite owned by SpaceX/Seattle (US) in LEO that was launched on Thu, 03 Sep 2020 UTC via an FALCON 9 launch vehicle from the Air Force Eastern Test Range (AFETR). Payload-class satellites include a variety of spacecraft equipped with specific instruments for various scientific and technological missions. These include communications satellites like Starlink; space stations such as the ISS; scientific satellites like the Hubble; Earth observation satellites from companies like Planet Labs, Umbra, and HawkEye 360; GPS; miniature CubeSats for education and research; and military/defense satellites.

Loading next visibility...
Identifier
46326, 2020-062B
Orbit
LEO
Country
Flag of USUS
Related business
Manufacturer
SpaceX/Seattle
Mission
Operational Commercial Communications
Bus & Motor
STARLINK, Unknown motor
Mass
260 kg wet, ~248 kg dry
Launch date (UTC)
2020-09-03 (5 years ago)
Launch vehicle
FALCON 9
Launch site
Air Force Eastern Test Range (AFETR)
Object type
Payload
Rocket body
Debris
Shape & HBR
Box + 1 Pan, 10.1 m
Radar Cross Section
13.562 m², Large (>1 m²)

Expand to show TLE details & history
Last TLE update: 12 hours ago

TLE from 12 hours ago
0 STARLINK-1654
1 46326U 20062B   25288.00002315  .01723455  00000-0  96758-1 0  9990
2 46326  53.0543 310.8678 0001369 109.3128 156.3741 15.09590847  5751
Epoch: 2025-10-15T00:00Z
TLE epoch observation values (Epoch: 2025-10-15T00:00:02.000Z)
Latitude
-52.99191°
Longitude
-170.04625°
Altitude
556.737 km
Speed
7.583 km/s
True Right ascension
14h 14m 58s
True Declination
-52° 49' 18"
Sunlit
Object was in daylight at epoch
Visualization orbit readout
Latitude
Unknown
Longitude
Unknown
Altitude
Unknown
Speed
Unknown
Apparent Right ascension
Unknown
Apparent Declination
Unknown
Sunlit
N/A
Visualization observer readout
Local Sidereal Time
06:14:12
Azimuth
Unknown
Elevation
Unknown
Doppler factor
Unknown
Orbital elements
Apogee altitude
538.667 km
Perigee altitude
536.774 km
Semi-major axis
6,915.857 km
Eccentricity
0.00014
Inclination
53.0543°
RAAN
310.8678°
Arg. of periapsis
109.3128°
True anomaly
156.38039°
Mean anomaly
156.3741°
Eccentric anomaly
156.37724°
Mean motion
3.77376 °/min
Orbital period
95.4 mins
BSTAR
0.096758
Loading maneuver chart data...
Computing Atmospheric mass density...
Loading historical data...
Loading historical data...
Loading historical data...
Loading historical data...
Loading historical data...
Loading historical data...
Loading historical data...

Documentation

Showing up to 5 results
|